www.pogodaiklimat.ru

Погода и климат >> Архив погоды >> Австралия >> Tennant Creek Airport


ПОГОДА в Tennant Creek Airport

  • Прогноз погоды в Tennant Creek Airport
  • Монитор погоды в Tennant Creek Airport
  • Климат города

АРХИВ ПОГОДЫ в Tennant Creek Airport

Время (UTC), дата Ветер
(напр.,м/с)
 
Видим.   Явления Облачность Т
(С)
Тd
(С)
f
(%)
Тe
(С)
Тes
(С)
Комфортность P
(гПа)
Po
(гПа)
Тmin
(С)
Tmax
(С)
R
(мм)
R24
(мм)
S
(см)
05 16.01 Ю 3 н/о н/о +39.0 -3.0 7 +35 +35 очень
жарко
1002.6 961.4
06 16.01 В 3 н/о н/о +39.3 -2.8 7 +35 +35 очень
жарко
1001.7 960.6
08 16.01 В 3 н/о н/о +38.9 -3.1 7 +35 +35 очень
жарко
1001.2 960.1
09 16.01 ЮВ 4 н/о н/о +37.9 -3.8 7 +34 +34 очень
жарко
1001.4 960.3
11 16.01 В 5 н/о н/о +33.8 -0.7 11 +30 +30 жарко 1003.1 961.9
12 16.01 В 4 н/о н/о +32.9 -0.2 12 +30 +30 жарко 1004.0 962.8
14 16.01 В 4 н/о н/о +31.3 -0.4 13 +28 +28 жарко 1004.1 962.9
15 16.01 В 3 н/о н/о +29.6 +1.1 16 +27 +27 жарко 1003.6 962.4
17 16.01 СВ 4 н/о н/о +29.5 +1.9 17 +27 +27 жарко 1003.9 962.7
18 16.01 С 3 н/о н/о +26.7 +7.7 30 +27 +27 жарко 1003.7 962.5
20 16.01 СЗ 2 н/о н/о +24.5 +11.1 43 +26 +26 жарко 1003.6 962.4
21 16.01 СВ 2 н/о н/о +24.9 +12.5 46 +27 +27 жарко 1004.4 963.2
23 16.01 СВ 6 н/о н/о +28.3 +18.7 56 +33 +33 очень
душно
1006.1 964.8
00 17.01 С 6 н/о н/о +30.3 +18.7 50 +35 +35 очень
душно
1006.3 965.0
02 17.01 С 6 н/о н/о +34.1 +17.3 37 +38 +38 очень
душно
1004.9 963.6
03 17.01 СВ 4 н/о н/о +35.2 +16.5 33 +38 +38 очень
душно
1004.0 962.8
05 17.01 СВ 5 н/о н/о +37.2 +13.3 24 +37 +37 очень
жарко
1003.4 962.2
06 17.01 В 5 н/о н/о +37.0 +13.7 25 +37 +37 очень
жарко
1002.4 961.2
08 17.01 В 4 н/о н/о +37.5 +12.8 23 +37 +37 очень
жарко
1001.3 960.2
09 17.01 СВ 6 н/о н/о +28.4 +19.3 58 +34 +34 очень
душно
1003.3 962.1
11 17.01 С 4 н/о н/о +30.3 +17.7 47 +35 +35 очень
душно
1004.3 963.1
12 17.01 С 4 н/о н/о +29.0 +16.9 48 +33 +33 очень
душно
1007.6 966.2
14 17.01 СВ 3 н/о н/о +28.1 +17.6 53 +32 +32 душно 1008.8 967.4
15 17.01 ЮВ 7 н/о н/о +21.8 +20.3 91 +28 +28 душно 1009.3 967.9
17 17.01 Ю 3 н/о н/о +22.7 +19.1 80 +29 +29 очень
душно
1007.2 965.8
18 17.01 В 2 н/о н/о +23.4 +19.8 80 +30 +30 очень
душно
1006.5 965.2
20 17.01 В 3 н/о н/о +23.2 +20.2 83 +30 +30 очень
душно
1006.4 965.1
21 17.01 В 4 н/о н/о +23.4 +20.2 82 +31 +31 очень
душно
1006.9 965.6
23 17.01 СВ 7 н/о н/о +27.6 +20.2 64 +34 +34 очень
душно
1008.2 966.8
00 18.01 СВ 6 н/о н/о +28.6 +20.1 60 +35 +35 очень
душно
1008.5 967.1
02 18.01 СВ 6 н/о н/о +32.0 +19.9 49 +38 +38 очень
душно
1007.6 966.2
03 18.01 СВ 6 н/о н/о +32.8 +18.6 43 +38 +38 очень
душно
1006.9 965.6
05 18.01 СВ 6 н/о н/о +34.3 +16.6 35 +37 +37 очень
душно
1005.4 964.1
06 18.01 СВ 4 н/о н/о +33.7 +18.2 40 +38 +38 очень
душно
1004.8 963.5
08 18.01 СВ 7 н/о н/о +28.3 +19.8 60 +34 +34 очень
душно
1005.0 963.7
09 18.01 В 6 н/о н/о +28.3 +19.5 59 +34 +34 очень
душно
1004.9 963.6
11 18.01 В 7 н/о н/о +26.6 +20.0 67 +33 +33 очень
душно
1006.9 965.6
12 18.01 В 7 н/о н/о +26.1 +20.0 69 +32 +32 очень
душно
1007.5 966.1
14 18.01 СВ 6 н/о н/о +27.1 +19.4 63 +33 +33 очень
душно
1008.1 966.7
15 18.01 СВ 6 н/о н/о +26.6 +19.7 66 +32 +32 очень
душно
1007.7 966.3
17 18.01 СВ 5 н/о н/о +25.3 +20.1 73 +31 +31 очень
душно
1006.9 965.6
18 18.01 С 4 н/о н/о +25.1 +19.9 73 +31 +31 очень
душно
1007.0 965.7
20 18.01 СВ 3 н/о н/о +24.5 +20.0 76 +30 +30 очень
душно
1007.4 966.0
21 18.01 СВ 3 н/о н/о +24.2 +20.3 79 +30 +30 очень
душно
1007.9 966.5
23 18.01 СВ 5 н/о н/о +27.6 +20.4 65 +34 +34 очень
душно
1009.1 967.7
00 19.01 В 7 н/о н/о +29.6 +20.2 57 +36 +36 очень
душно
1008.9 967.5
02 19.01 В 7 н/о н/о +31.7 +20.0 50 +38 +38 очень
душно
1008.0 966.6
03 19.01 В 8 н/о н/о +32.6 +19.8 47 +39 +39 очень
душно
1007.5 966.1
05 19.01 В 6 н/о н/о +33.2 +18.9 43 +38 +38 очень
душно
1005.0 963.7
06 19.01 В 7 н/о н/о +33.0 +18.7 43 +38 +38 очень
душно
1004.2 963.0
08 19.01 СВ 7 н/о н/о +31.9 +19.9 49 +38 +38 очень
душно
1003.7 962.5
09 19.01 В 7 н/о н/о +31.7 +18.3 45 +36 +36 очень
душно
1004.5 963.3
11 19.01 СВ 5 н/о н/о +26.9 +21.2 71 +34 +34 очень
душно
1005.9 964.6
12 19.01 В 4 н/о н/о +27.3 +21.1 69 +34 +34 очень
душно
1006.5 965.2
14 19.01 В 5 н/о н/о +27.1 +21.4 71 +34 +34 очень
душно
1007.3 965.9
15 19.01 С 5 н/о н/о +24.3 +22.6 90 +32 +32 очень
душно
1007.2 965.8
17 19.01 штиль 0 н/о н/о +23.6 +21.7 89 +30 +30 очень
душно
1005.6 964.3
18 19.01 штиль 0 н/о н/о +23.8 +21.7 88 +30 +30 очень
душно
1005.0 963.7
20 19.01 В 3 н/о н/о +23.6 +21.5 88 +30 +30 очень
душно
1005.1 963.8
21 19.01 СВ 3 н/о н/о +24.2 +21.1 83 +31 +31 очень
душно
1005.7 964.4
23 19.01 СВ 4 н/о н/о +27.8 +20.6 65 +35 +35 очень
душно
1007.0 965.7
00 20.01 СВ 4 н/о н/о +28.3 +20.3 62 +35 +35 очень
душно
1006.7 965.4
02 20.01 В 4 н/о н/о +32.0 +19.6 48 +38 +38 очень
душно
1005.4 964.1
03 20.01 В 5 н/о н/о +33.0 +18.4 42 +38 +38 очень
душно
1004.8 963.5
05 20.01 В 8 н/о н/о +35.3 +16.6 33 +38 +38 очень
душно
1002.9 961.7
06 20.01 В 6 н/о н/о +34.9 +15.3 31 +37 +37 очень
душно
1002.0 960.9
08 20.01 В 6 н/о н/о +34.5 +16.4 34 +37 +37 очень
душно
1001.6 960.5
09 20.01 В 7 н/о н/о +34.4 +15.3 32 +36 +36 душно 1002.0 960.9
11 20.01 СВ 6 н/о н/о +31.3 +17.9 45 +36 +36 очень
душно
1003.6 962.4
12 20.01 С 10 н/о н/о +27.9 +20.2 63 +34 +34 очень
душно
1004.7 963.4
14 20.01 СВ 7 н/о н/о +25.5 +19.9 71 +31 +31 очень
душно
1004.9 963.6
15 20.01 СВ 6 н/о н/о +24.8 +20.1 75 +30 +30 душно 1004.7 963.4
17 20.01 СВ 3 н/о н/о +24.0 +19.9 78 +29 +29 душно 1003.6 962.4
18 20.01 СВ 3 н/о н/о +23.6 +19.7 79 +29 +29 душно 1003.4 962.2
20 20.01 В 3 н/о н/о +22.8 +20.0 84 +29 +29 очень
душно
1003.7 962.5
21 20.01 В 4 н/о н/о +22.9 +19.9 83 +30 +30 очень
душно
1004.2 963.0
23 20.01 В 6 н/о н/о +27.7 +18.4 57 +33 +33 очень
душно
1004.9 963.6
00 21.01 В 8 н/о н/о +30.0 +16.4 44 +33 +33 душно 1004.5 963.3
02 21.01 В 9 н/о н/о +33.2 +14.3 32 +35 +35 душно 1003.4 962.2
03 21.01 В 9 н/о н/о +34.4 +13.3 28 +35 +35 очень
жарко
1002.7 961.5
05 21.01 В 10 н/о н/о +37.2 +10.5 20 +36 +36 очень
жарко
1000.7 959.6
06 21.01 В 10 н/о н/о +36.8 +10.9 21 +36 +36 очень
жарко
1000.0 958.9
08 21.01 В 9 н/о н/о +37.8 +13.1 23 +38 +38 очень
жарко
999.4 958.4
09 21.01 В 9 н/о н/о +36.6 +12.1 23 +36 +36 очень
жарко
999.7 958.7
11 21.01 СВ 8 н/о н/о +29.3 +19.6 56 +35 +35 очень
душно
1002.6 961.4
12 21.01 СВ 8 н/о н/о +28.3 +19.0 57 +34 +34 очень
душно
1003.3 962.1
14 21.01 СВ 6 н/о н/о +26.7 +18.6 61 +32 +32 очень
душно
1004.1 962.9
15 21.01 СВ 7 н/о н/о +26.1 +16.6 56 +30 +30 душно 1004.0 962.8
17 21.01 В 5 н/о н/о +24.5 +17.0 63 +28 +28 душно 1002.9 961.7
18 21.01 В 4 н/о н/о +23.9 +17.4 67 +28 +28 душно 1002.8 961.6
20 21.01 В 4 н/о н/о +23.3 +17.7 71 +29 +29 душно 1003.2 962.0
21 21.01 В 5 н/о н/о +23.6 +17.1 67 +27 +27 жарко 1003.5 962.3
23 21.01 В 8 н/о н/о +25.2 +18.6 67 +30 +30 душно 1004.5 963.3
00 22.01 В 6 н/о н/о +27.3 +18.9 60 +32 +32 очень
душно
1004.4 963.2
02 22.01 В 10 н/о н/о +30.4 +18.5 49 +35 +35 очень
душно
1003.0 961.8
03 22.01 В 10 н/о н/о +32.0 +17.9 43 +36 +36 очень
душно
1002.3 961.1
05 22.01 В 9 н/о н/о +32.2 +17.7 42 +36 +36 очень
душно
1000.8 959.7
06 22.01 В 9 н/о н/о +32.4 +17.5 41 +36 +36 очень
душно
1000.4 959.3
08 22.01 В 10 н/о н/о +32.9 +15.0 34 +35 +35 душно 1000.5 959.4
09 22.01 В 10 н/о н/о +31.8 +15.3 37 +34 +34 душно 1001.3 960.2
11 22.01 В 6 н/о н/о +30.7 +15.2 39 +33 +33 душно 1002.8 961.6
12 22.01 СВ 7 н/о н/о +30.0 +14.5 39 +32 +32 жарко 1003.4 962.2
14 22.01 СВ 6 н/о н/о +27.2 +17.1 54 +31 +31 душно 1003.8 962.6
15 22.01 СВ 6 н/о н/о +26.5 +15.8 52 +30 +30 душно 1003.0 961.8
17 22.01 В 3 н/о н/о +24.6 +15.8 58 +28 +28 душно 1001.8 960.7
18 22.01 В 4 н/о н/о +24.1 +16.4 62 +28 +28 душно 1001.5 960.4
20 22.01 В 4 н/о н/о +23.6 +18.3 72 +28 +28 душно 1002.1 961.0
21 22.01 В 4 н/о н/о +23.4 +18.1 72 +29 +29 душно 1002.9 961.7
23 22.01 В 7 н/о н/о +26.2 +19.3 66 +32 +32 очень
душно
1003.7 962.5
00 23.01 СВ 7 н/о н/о +28.1 +19.6 60 +34 +34 очень
душно
1003.8 962.6
02 23.01 В 8 н/о н/о +31.6 +19.6 49 +37 +37 очень
душно
1003.0 961.8

 

Местоположение метеостанции Tennant Creek Airport (Северная территория, Австралия): широта -19.63 долгота 134.18 высота над уровнем моря 377 м.

В архиве по умолчанию представлена погода в Tennant Creek Airport за последнюю неделю. Архивные данные за месяц целиком и за предыдущие месяцы, начиная с января 2011 года, Вы можете получить, выбрав интересующий диапазон дат из раскрывающегося списка и нажав кнопку "Ввод!".

Внимание! Время в таблицах - всемирное. Для получения местного времени необходимо прибавить поправку, которая в Tennant Creek Airport равна 9.5 ч.

Смотрите также архив погоды в соседних городах и на ближайших метеорологических станциях:

Погода в Territory Grape Farm (Северная территория, Австралия) (319 км)
Погода в Daly Waters Aws (Северная территория, Австралия) (386 км)
Погода в Lajamanu (Северная территория, Австралия) (400 км)
Погода в Mcarthur River Mine (Северная территория, Австралия) (408 км)
Погода в Camooweal Township (Квинсленд, Австралия) (413 км)
Погода в Jervois (Северная территория, Австралия) (422 км)
Погода в Rabbit Flat (Северная территория, Австралия) (439 км)
Погода в Borroloola (Северная территория, Австралия) (454 км)
Погода в Alice Springs Airport (Северная территория, Австралия) (465 км)
Погода в Century Mine (Квинсленд, Австралия) (485 км)

Пояснения к столбцам:

Ветер - указаны скорость ветра в м/с - средняя за 10 мин, порывы в срок и между сроками (в фигурных скобках) и направление, откуда дует ветер: С - северный, СВ - северо-восточный, В - восточный, ЮВ - юго-восточный, Ю - южный, ЮЗ - юго-западный, З - западный, СЗ - северо-западный.
Видимость - горизонтальная дальность видимости в метрах или километрах. При видимости от 1 до 10 км при отсутствии осадков обычно наблюдается дымка, при ухудшении видимости до 1 км и менее - туман. В сухую погоду видимость может ухудшаться дымом, пылью или мглою.
Явления - указаны атмосферные явления, наблюдавшиеся в срок или в последний час перед сроком; фигурными скобками обозначены явления, наблюдавшиеся между сроками (за 1-3 часа до срока); квадратными скобками обозначены град или гололедные отложения с указанием их диаметра в мм.
Облачность - указаны через наклонную черту общая и нижняя облачность в баллах и высота нижней границы облаков в метрах; квадратными скобками обозначены формы облаков: Ci - перистые, Cs - перисто-слоистые, Cc - перисто-кучевые, Ac - высококучевые, As - высокослоистые, Sc - слоисто-кучевые, Ns - слоисто-дождевые, Cu - кучевые, Cb - кучево-дождевые. Подробнее классификацию облаков см. в Атласе облаков (PDF).
T - Температура воздуха - температура, измеренная на высоте 2 м над землей.
Td - Температура точки росы - температура, при понижении до которой содержащийся в воздухе водяной пар достигнет насыщения.
f - Относительная влажность воздуха - влажноcть воздуха, измеренная на высоте 2 м над землей.
Te - Эффективная температура - температура, которую ощущает одетый по сезону человек в тени. Характеристика душности погоды. При расчете учитывается влияние влажности воздуха и скорости ветра на теплоощущения человека.
Tes - Эффективная температура на солнце - температура, которую ощущает человек, с поправкой на солнечный нагрев. Характеристика знойности погоды. Зависит от высоты солнца над горизонтом, облачности и скорости ветра. Ночью, в пасмурную погоду, а также при ветре 12 м/с и более поправка равна нулю.
P - Атмосферное давление - приведенное к уровню моря атмосферное давление.
Po - Атмосферное давление - измеренное на уровне метеостанции атмосферное давление.
Tmin - Минимальная температура - минимум температуры воздуха на высоте 2 м над землей.
Tmax - Максимальная температура - максимум температуры воздуха на высоте 2 м над землей.
R - Количество осадков - Количество выпавших осадков за период времени, мм. При наведении курсора мыши на число - период времени, за который выпало указанное количество осадков.
R24 - Количество осадков - Количество выпавших осадков за 24 часа, мм.
S - Снежный покров - Высота снежного покрова, см. При наведении курсора мыши на число - состояние снежного покрова и степень покрытия местности в баллах.